sat.trackr.live / text

‹ back to catalog

STARLINK-36396

NORAD 67494 · 2026-012B

PAYLOAD ACTIVE UNKNOWN

§ Identity

Operator
Country
US
Launch date
2026-01-18
Launch site
AFETR
Launch vehicle
Mass (kg)
RCS (m²)

Purposes: comms

External: N2YO · Heavens-Above · Gunter

§ Orbital elements

Epoch: 2026-09-19T10:48:18.324576Z

Period
94.27 min
Inclination
43.0029°
Eccentricity
0.0001965
Mean motion
15.27601070 rev/d
Perigee alt
481.6 km
Apogee alt
484.3 km
Semi-major
6,861.1 km
B*
5.5111e-4
RAAN
300.2922°
Arg perigee
290.0408°
Mean anomaly
70.0232°
Rev number
3,739

§ Raw data

STARLINK-363961 67494U 26012B   26262.45021209  .00014944  00000+0  55111-3 0  99992 67494  43.0029 300.2922 0001965 290.0408  70.0232 15.27601070 37397

JSON: /api/v1/satellites/67494 · /tle

For live sub-satellite position, see the globe view (requires WebGL).

§ Visibility from observer

Set your observer location to see the next 7 days of passes ≥ 10°. The values pass through the URL so the page stays shareable.

No JS? Fill the form by hand. The geolocation button needs JavaScript.